JBU2824 KLAX-KJFK

Flight info

Callsign JBU2824
Flight time N/A
Altitude 31000
Route DOTSS2 CLEEE PKE GUP KK45A ROKNE/N0460F330 BUM VHP KI63Q KLYNE Q29 WWSHR JHW Q476 WLKES PUCKY1
Aircraft A21N/M-SDE2E3FGHIRWXY/LB1

Departure

Time 2026-04-21 00:28
Airport Los Angeles International Airport (KLAX)

Arrival

Time N/A
Airport John F. Kennedy International Airport (KJFK)
Time Latitude Longitude Altitude Speed Heading
2026-04-20 23:47 33.94145 -118.40148 98 ft 0 kts 275°
2026-04-21 00:15 33.94145 -118.40147 98 ft 1 kts 275°
2026-04-21 00:15 33.94143 -118.40120 98 ft 4 kts 264°
2026-04-21 00:15 33.94152 -118.40095 101 ft 4 kts 214°
2026-04-21 00:15 33.94173 -118.40088 99 ft 2 kts 172°
2026-04-21 00:16 33.94178 -118.40089 98 ft 0 kts 172°
2026-04-21 00:21 33.94161 -118.40086 98 ft 5 kts 172°
2026-04-21 00:21 33.94112 -118.40078 101 ft 8 kts 172°
2026-04-21 00:21 33.94048 -118.40067 100 ft 10 kts 174°
2026-04-21 00:21 33.93972 -118.40059 101 ft 12 kts 174°
2026-04-21 00:22 33.93894 -118.40014 99 ft 14 kts 121°
2026-04-21 00:22 33.93890 -118.39893 101 ft 15 kts 83°
2026-04-21 00:22 33.93903 -118.39760 100 ft 17 kts 83°
2026-04-21 00:22 33.93917 -118.39618 100 ft 18 kts 83°
2026-04-21 00:23 33.93932 -118.39469 100 ft 19 kts 83°
2026-04-21 00:23 33.93948 -118.39308 99 ft 20 kts 83°
2026-04-21 00:23 33.93965 -118.39142 99 ft 21 kts 83°
2026-04-21 00:23 33.93984 -118.38964 100 ft 22 kts 82°
2026-04-21 00:24 33.94004 -118.38782 99 ft 23 kts 83°
2026-04-21 00:24 33.94024 -118.38588 101 ft 24 kts 83°
2026-04-21 00:24 33.94045 -118.38385 101 ft 25 kts 83°
2026-04-21 00:24 33.94052 -118.38309 101 ft 6 kts 79°
2026-04-21 00:25 33.94060 -118.38250 100 ft 9 kts 83°
2026-04-21 00:25 33.94068 -118.38161 99 ft 13 kts 83°
2026-04-21 00:25 33.94078 -118.38057 98 ft 6 kts 82°
2026-04-21 00:25 33.94077 -118.38025 98 ft 0 kts 123°
2026-04-21 00:26 33.94077 -118.38024 98 ft 0 kts 123°
2026-04-21 00:26 33.94068 -118.38014 97 ft 3 kts 139°
2026-04-21 00:27 33.94043 -118.37994 98 ft 6 kts 159°
2026-04-21 00:27 33.93997 -118.37992 99 ft 4 kts 195°
2026-04-21 00:27 33.93982 -118.38029 100 ft 7 kts 261°
2026-04-21 00:27 33.93965 -118.38196 101 ft 49 kts 263°
2026-04-21 00:28 33.93891 -118.38923 101 ft 126 kts 262°
2026-04-21 00:28 33.93783 -118.39976 258 ft 165 kts 263°
2026-04-21 00:28 33.93626 -118.41344 1254 ft 164 kts 262°
2026-04-21 00:28 33.93443 -118.42705 2060 ft 171 kts 263°
2026-04-21 00:29 33.93318 -118.44222 2515 ft 193 kts 263°
2026-04-21 00:29 33.93037 -118.45865 3036 ft 209 kts 248°
2026-04-21 00:29 33.92230 -118.47375 3558 ft 224 kts 231°
2026-04-21 00:29 33.91201 -118.48917 3941 ft 247 kts 231°
2026-04-21 00:30 33.90068 -118.50571 4525 ft 262 kts 229°
2026-04-21 00:30 33.88867 -118.52259 5318 ft 267 kts 229°
2026-04-21 00:30 33.87604 -118.53921 6120 ft 271 kts 219°
2026-04-21 00:30 33.85947 -118.54993 6694 ft 274 kts 195°
2026-04-21 00:31 33.84066 -118.55163 7246 ft 277 kts 174°
2026-04-21 00:31 33.82126 -118.54771 8014 ft 282 kts 170°
2026-04-21 00:31 33.80205 -118.54325 8792 ft 285 kts 170°
2026-04-21 00:31 33.78249 -118.53885 9555 ft 288 kts 170°
2026-04-21 00:32 33.76266 -118.53457 10289 ft 293 kts 171°
2026-04-21 00:32 33.74205 -118.53019 10669 ft 310 kts 170°
2026-04-21 00:32 33.72078 -118.52234 10968 ft 331 kts 156°
2026-04-21 00:32 33.70111 -118.50667 11237 ft 352 kts 139°
2026-04-21 00:33 33.68558 -118.48281 11500 ft 373 kts 120°
2026-04-21 00:33 33.67560 -118.45338 11770 ft 392 kts 111°
2026-04-21 00:33 33.66672 -118.42154 12075 ft 406 kts 110°
2026-04-21 00:33 33.65761 -118.38913 12572 ft 411 kts 111°
2026-04-21 00:34 33.64854 -118.35633 13133 ft 415 kts 108°
2026-04-21 00:34 33.64406 -118.32189 13710 ft 422 kts 95°
2026-04-21 00:34 33.64386 -118.28651 14275 ft 426 kts 91°
2026-04-21 00:34 33.64411 -118.25086 14789 ft 430 kts 91°
2026-04-21 00:35 33.64434 -118.21484 15351 ft 433 kts 92°
2026-04-21 00:35 33.64446 -118.17891 15915 ft 437 kts 92°
2026-04-21 00:35 33.64449 -118.14223 16473 ft 441 kts 92°
2026-04-21 00:35 33.64447 -118.10524 17003 ft 445 kts 92°
2026-04-21 00:36 33.64446 -118.06798 17515 ft 449 kts 92°
2026-04-21 00:36 33.64442 -118.03031 18018 ft 453 kts 92°
2026-04-21 00:36 33.64435 -117.99237 18518 ft 456 kts 93°
2026-04-21 00:36 33.64422 -117.95420 19013 ft 459 kts 92°
2026-04-21 00:37 33.64412 -117.91575 19487 ft 462 kts 92°
2026-04-21 00:37 33.64405 -117.87711 19966 ft 465 kts 92°
2026-04-21 00:37 33.64397 -117.83807 20426 ft 468 kts 92°
2026-04-21 00:37 33.64464 -117.79907 20865 ft 473 kts 88°
2026-04-21 00:38 33.65028 -117.76000 21359 ft 479 kts 79°
2026-04-21 00:38 33.65794 -117.72091 21866 ft 483 kts 79°
2026-04-21 00:38 33.66497 -117.68532 22295 ft 486 kts 79°
2026-04-21 00:38 33.67291 -117.64455 22742 ft 489 kts 79°
2026-04-21 00:39 33.68058 -117.60508 23180 ft 492 kts 79°
2026-04-21 00:39 33.68834 -117.56488 23597 ft 495 kts 79°
2026-04-21 00:39 33.69606 -117.52461 24022 ft 497 kts 79°
2026-04-21 00:39 33.70380 -117.48417 24542 ft 496 kts 79°
2026-04-21 00:40 33.71154 -117.44384 25049 ft 495 kts 79°
2026-04-21 00:40 33.71916 -117.40365 25536 ft 493 kts 79°
2026-04-21 00:40 33.72671 -117.36360 26035 ft 492 kts 79°
2026-04-21 00:40 33.73426 -117.32369 26475 ft 492 kts 79°
2026-04-21 00:41 33.74186 -117.28353 26934 ft 491 kts 79°
2026-04-21 00:41 33.74691 -117.25635 27250 ft 490 kts 81°
2026-04-21 00:41 33.75088 -117.21596 27670 ft 486 kts 91°
2026-04-21 00:41 33.75052 -117.17590 28090 ft 484 kts 94°
2026-04-21 00:42 33.74955 -117.13548 28484 ft 484 kts 94°
2026-04-21 00:42 33.74850 -117.09459 28895 ft 483 kts 94°
2026-04-21 00:42 33.74759 -117.05431 29297 ft 482 kts 94°
2026-04-21 00:42 33.74674 -117.01403 29692 ft 481 kts 94°
2026-04-21 00:43 33.74591 -116.97429 30048 ft 481 kts 94°
2026-04-21 00:43 33.74510 -116.93415 30412 ft 480 kts 94°
2026-04-21 00:43 33.74422 -116.89415 30741 ft 480 kts 94°
2026-04-21 00:43 33.74330 -116.85387 31004 ft 481 kts 94°
2026-04-21 00:44 33.74240 -116.81377 31059 ft 482 kts 94°
2026-04-21 00:44 33.74050 -116.73320 31004 ft 482 kts 94°
2026-04-21 00:45 33.73765 -116.61269 30960 ft 481 kts 94°
2026-04-21 00:45 33.73566 -116.53232 30923 ft 481 kts 94°
2026-04-21 00:46 33.73365 -116.45250 30914 ft 480 kts 94°
2026-04-21 00:46 33.73154 -116.37216 30917 ft 480 kts 94°
2026-04-21 00:47 33.72940 -116.29199 30919 ft 480 kts 94°
2026-04-21 00:47 33.72725 -116.21189 30919 ft 480 kts 94°
2026-04-21 00:48 33.72501 -116.13195 30923 ft 480 kts 94°
2026-04-21 00:48 33.72945 -116.05171 30898 ft 485 kts 78°
2026-04-21 00:49 33.75047 -115.97455 30900 ft 486 kts 72°
2026-04-21 00:49 33.77222 -115.89761 30898 ft 487 kts 73°
2026-04-21 00:50 33.79370 -115.82029 30934 ft 487 kts 73°
2026-04-21 00:50 33.81482 -115.74389 30951 ft 486 kts 73°
2026-04-21 00:51 33.83609 -115.66631 30953 ft 487 kts 73°
2026-04-21 00:51 33.85729 -115.58925 30953 ft 486 kts 73°
2026-04-21 00:52 33.87844 -115.51198 30952 ft 485 kts 73°
2026-04-21 00:52 33.89949 -115.43483 30938 ft 484 kts 73°
2026-04-21 00:53 33.92053 -115.35753 30939 ft 485 kts 73°
2026-04-21 00:53 33.94150 -115.28042 30920 ft 483 kts 73°
2026-04-21 00:54 33.96236 -115.20305 30922 ft 485 kts 73°
2026-04-21 00:54 33.98317 -115.12606 30919 ft 485 kts 73°
2026-04-21 00:55 34.00402 -115.04852 30919 ft 485 kts 73°
2026-04-21 00:55 34.02473 -114.97131 30914 ft 483 kts 73°
2026-04-21 00:56 34.04529 -114.89422 30910 ft 482 kts 73°
2026-04-21 00:56 34.06577 -114.81772 30901 ft 481 kts 72°
2026-04-21 00:57 34.08634 -114.74030 30901 ft 481 kts 73°
2026-04-21 00:57 34.10681 -114.66326 30901 ft 483 kts 73°
2026-04-21 00:58 34.12711 -114.58616 30897 ft 481 kts 73°
2026-04-21 00:58 34.14735 -114.50907 30893 ft 482 kts 73°
2026-04-21 00:59 34.16752 -114.43246 30895 ft 482 kts 73°
2026-04-21 00:59 34.18765 -114.35549 30882 ft 481 kts 73°
2026-04-21 01:00 34.20775 -114.27856 30899 ft 481 kts 73°
2026-04-21 01:00 34.22791 -114.20137 30900 ft 481 kts 73°
2026-04-21 01:01 34.24795 -114.12419 30900 ft 481 kts 73°
2026-04-21 01:01 34.26785 -114.04710 30900 ft 481 kts 73°
2026-04-21 01:02 34.28781 -113.96986 30901 ft 481 kts 73°
2026-04-21 01:02 34.30771 -113.89266 30910 ft 481 kts 73°
2026-04-21 01:03 34.32756 -113.81525 30912 ft 480 kts 73°
2026-04-21 01:03 34.34728 -113.73813 30919 ft 480 kts 73°
2026-04-21 01:04 34.36696 -113.66088 30926 ft 480 kts 73°
2026-04-21 01:04 34.38652 -113.58364 30940 ft 480 kts 73°
2026-04-21 01:05 34.40618 -113.50627 30951 ft 479 kts 73°
2026-04-21 01:05 34.42555 -113.42964 30961 ft 479 kts 72°
2026-04-21 01:06 34.44503 -113.35213 30977 ft 478 kts 72°
2026-04-21 01:06 34.46427 -113.27569 31023 ft 477 kts 72°
2026-04-21 01:07 34.48357 -113.19858 31043 ft 476 kts 72°
2026-04-21 01:07 34.50278 -113.12164 31053 ft 477 kts 72°
2026-04-21 01:08 34.52194 -113.04466 31067 ft 476 kts 72°
2026-04-21 01:08 34.54104 -112.96783 31070 ft 476 kts 72°
2026-04-21 01:09 34.55998 -112.89114 31084 ft 475 kts 72°
2026-04-21 01:09 34.57887 -112.81457 31090 ft 475 kts 72°
2026-04-21 01:10 34.59781 -112.73774 31099 ft 475 kts 72°
2026-04-21 01:10 34.61665 -112.66086 31116 ft 475 kts 72°
2026-04-21 01:11 34.63540 -112.58411 31148 ft 475 kts 71°
2026-04-21 01:11 34.64484 -112.54546 31446 ft 476 kts 71°
2026-04-21 01:11 34.65422 -112.50699 31813 ft 474 kts 71°
2026-04-21 01:12 34.66353 -112.46869 32163 ft 473 kts 71°
2026-04-21 01:12 34.67281 -112.43046 32506 ft 471 kts 71°
2026-04-21 01:12 34.68203 -112.39238 32849 ft 469 kts 71°
2026-04-21 01:12 34.69123 -112.35436 33117 ft 468 kts 71°
2026-04-21 01:13 34.70937 -112.27924 33150 ft 465 kts 71°
2026-04-21 01:13 34.72756 -112.20380 33108 ft 464 kts 71°
2026-04-21 01:14 34.74551 -112.12848 33065 ft 464 kts 71°
2026-04-21 01:14 34.76352 -112.05299 33041 ft 464 kts 71°
2026-04-21 01:15 34.78166 -111.97757 33032 ft 464 kts 71°
2026-04-21 01:15 34.79947 -111.90239 33054 ft 461 kts 71°
2026-04-21 01:16 34.81719 -111.82722 33084 ft 461 kts 71°
2026-04-21 01:16 34.83494 -111.75233 33108 ft 461 kts 71°
2026-04-21 01:17 34.85267 -111.67724 33111 ft 461 kts 71°
2026-04-21 01:17 34.87027 -111.60270 33126 ft 460 kts 71°
2026-04-21 01:18 34.88785 -111.52775 33142 ft 460 kts 71°
2026-04-21 01:18 34.90543 -111.45266 33166 ft 460 kts 71°
2026-04-21 01:19 34.92288 -111.37765 33161 ft 460 kts 72°
2026-04-21 01:19 34.94027 -111.30274 33180 ft 459 kts 72°
2026-04-21 01:20 34.95769 -111.22782 33166 ft 459 kts 72°
2026-04-21 01:20 34.97211 -111.16550 33159 ft 459 kts 72°